Theta_e
282 281 280 280 280 280 279 279 279 278 278 278 278 278 278 279 279 279 279 279 278 278 278 278 278 278 278 277 277 277 277 277 277 278 277 277 277 277 277 277 277 277
281 280 280 280 279 279 279 279 278 278 278 278 278 278 279 279 278 278 278 277 277 277 277 277 277 277 276 276 276 276 276 276 276 277 276 276 276 277 276 277 277 277
280 279 279 278 278 278 278 278 278 278 278 278 278 278 278 278 277 277 277 277 276 276 276 276 276 276 276 276 275 275 275 275 275 276 276 275 276 275 276 276 276 276
279 279 278 278 278 278 278 278 278 278 278 277 277 277 277 277 277 276 276 276 275 275 276 275 275 275 275 275 275 275 275 275 275 275 275 275 275 275 275 275 275 275
279 278 278 278 278 278 278 277 277 277 276 276 276 276 276 276 275 275 275 275 275 275 275 275 275 275 275 275 274 274 274 274 275 275 274 274 274 275 275 275 275 274
278 278 278 277 277 277 277 276 276 276 276 275 275 276 275 275 275 274 274 274 274 274 274 274 274 274 274 274 274 274 274 274 274 274 273 273 274 275 275 274 274 274
277 277 277 277 277 277 276 276 275 275 275 275 275 274 275 274 274 274 274 274 273 274 274 273 273 273 274 274 273 273 273 273 273 273 273 273 274 273 274 275 274 274
277 277 277 277 276 276 275 275 275 274 274 274 274 274 274 273 273 273 273 273 273 273 273 273 273 273 273 273 273 272 272 273 273 273 273 273 273 273 273 275 274 274
276 276 276 276 275 275 274 274 274 274 274 273 273 273 274 273 273 273 273 273 273 273 273 273 273 273 273 273 272 272 272 272 273 272 272 272 272 273 273 273 273 273
276 276 275 275 274 274 273 273 273 273 273 273 273 273 272 273 273 273 272 272 272 272 272 272 272 272 272 272 272 272 272 272 272 272 272 272 272 272 272 272 272 272
275 275 274 274 273 273 273 273 272 272 272 272 272 272 272 272 272 272 272 272 271 271 271 271 272 272 271 272 272 272 272 272 272 272 272 272 272 272 273 273 273 273
274 274 273 273 273 272 272 272 272 272 271 272 271 271 271 271 271 271 271 271 271 271 271 271 271 271 271 271 271 271 271 271 272 272 272 272 273 273 273 274 274 273
273 273 273 272 272 272 272 272 271 271 271 271 271 270 270 270 270 270 271 271 271 271 271 271 271 271 271 271 271 271 271 271 271 272 272 273 273 274 274 274 274 274
272 272 272 272 272 271 271 271 271 270 270 270 270 270 270 270 269 269 270 270 270 270 271 271 270 270 270 271 271 271 271 271 272 272 273 273 274 274 274 274 275 275
272 272 272 271 271 271 270 270 270 270 270 270 270 269 269 269 269 269 269 269 270 270 270 270 270 270 270 270 270 271 272 272 273 273 273 274 274 274 275 275 275 275
271 271 271 271 270 270 269 269 269 269 269 269 269 269 269 269 269 269 269 268 268 269 269 269 269 270 270 272 273 273 272 273 273 274 274 274 274 274 274 275 275 275
270 270 270 269 269 269 269 268 268 268 268 268 268 268 268 268 268 268 268 268 269 269 268 269 269 270 272 274 275 276 275 274 274 274 274 274 274 274 274 274 274 274
269 269 269 269 269 268 268 268 268 268 268 268 267 267 268 268 268 268 268 268 268 268 268 269 269 271 273 274 275 276 277 276 275 275 275 274 274 274 273 273 273 274
269 268 268 268 268 267 267 267 267 267 267 267 267 267 267 267 267 267 268 268 268 268 268 269 269 271 273 274 275 277 277 277 275 275 274 274 274 274 273 273 274 274
268 268 267 267 267 267 267 267 267 266 266 267 267 267 267 267 267 267 268 268 268 268 269 269 269 271 273 275 276 277 278 278 275 274 274 274 274 274 274 274 274 274
267 267 266 266 266 266 266 266 266 266 266 266 266 266 266 266 266 267 268 268 268 269 269 268 269 272 274 275 276 277 278 277 275 274 274 274 274 274 275 274 275 275
266 266 266 266 266 266 266 266 265 266 265 266 266 266 267 267 267 268 268 268 268 268 268 268 270 273 274 275 276 277 278 275 274 274 274 274 274 275 275 275 276 276
265 265 265 265 265 265 265 265 265 265 266 266 265 266 266 266 267 267 268 268 268 268 268 269 270 273 274 275 276 277 276 274 274 274 274 274 274 275 275 276 276 276
265 265 264 264 265 264 264 265 265 265 265 266 265 265 266 266 267 267 268 268 268 268 269 269 270 272 274 275 276 277 276 274 274 274 274 274 274 275 276 276 277 277
265 264 264 264 264 264 264 264 264 264 265 265 265 266 266 267 267 267 268 269 270 270 270 270 271 272 274 275 276 277 276 274 274 274 274 274 274 275 276 276 276 276
264 264 264 263 263 264 264 264 264 264 265 265 265 266 265 266 267 267 267 268 270 271 271 271 271 272 273 275 276 276 277 275 275 274 274 274 275 275 274 275 275 275
Wind_Speed
10 10 10 10 10 9 10 11 10 11 10 10 10 10 10 10 11 11 11 10 11 11 10 10 10 10 9 9 9 9 9 9 9 8 9 9 9 10 10 11 12 11
11 10 10 9 9 9 10 10 11 10 11 10 10 11 10 11 11 11 11 11 10 10 10 10 9 10 10 9 9 9 9 8 9 7 9 10 10 10 11 11 11 11
10 11 11 11 10 11 12 11 10 10 10 11 11 10 10 10 10 10 10 10 10 10 10 9 10 9 9 9 9 9 8 9 9 9 9 10 9 9 10 10 10 11
10 10 10 10 10 11 10 10 10 10 10 10 10 10 10 9 10 11 10 10 10 10 9 9 10 9 9 9 9 8 9 9 8 9 9 9 8 9 10 9 10 10
11 10 9 9 9 10 10 10 11 11 11 11 11 10 10 10 10 10 10 10 9 10 9 10 10 9 9 9 9 9 9 8 8 8 9 10 9 9 8 9 10 11
10 10 10 10 10 10 10 10 11 11 11 11 11 10 9 10 10 10 10 10 9 10 10 9 10 9 9 9 9 8 8 8 8 10 11 11 10 9 8 9 11 12
11 11 11 10 11 11 11 10 10 10 10 10 10 10 9 10 10 10 10 10 10 10 10 10 10 10 9 9 9 10 9 10 10 10 11 10 10 11 10 12 12 13
11 10 9 10 11 11 10 10 10 10 10 10 10 10 9 10 10 9 10 11 10 10 10 10 10 10 10 9 9 10 11 9 9 11 11 12 11 11 12 11 12 13
10 10 10 11 12 10 10 10 10 10 9 10 10 10 9 9 10 10 11 11 10 10 10 10 10 11 10 10 10 11 12 11 11 12 12 12 12 13 13 13 14 13
10 10 11 11 11 9 10 11 10 10 9 10 10 9 10 10 10 11 11 10 10 10 11 11 11 11 11 11 11 11 12 13 12 12 12 13 14 14 14 14 14 14
11 11 11 11 11 10 11 11 10 10 9 10 10 10 11 10 10 10 10 10 10 11 11 12 12 12 12 12 12 11 12 12 12 13 13 13 14 14 14 14 14 14
11 11 11 11 11 10 11 11 10 10 10 9 10 11 11 10 11 10 10 11 11 11 11 12 12 12 12 12 12 12 11 11 12 13 13 14 14 14 14 14 14 16
11 11 10 10 10 10 10 10 10 10 10 10 10 10 10 11 11 11 11 11 11 11 11 12 12 12 12 12 12 11 12 13 14 14 14 13 14 14 15 15 15 15
10 10 10 10 10 10 10 10 10 10 10 10 10 11 10 11 11 12 12 11 11 11 11 11 12 12 12 11 11 12 12 13 13 14 14 14 15 15 15 15 16 16
10 9 9 10 10 10 10 10 10 10 10 10 10 10 9 10 11 11 12 12 12 11 11 11 10 10 9 10 13 14 14 14 14 14 15 15 15 15 15 15 15 15
10 9 10 10 10 10 10 11 10 11 11 11 11 10 10 10 11 11 11 11 12 12 11 10 10 9 12 21 20 15 15 14 14 14 14 15 15 15 15 14 14 14
10 9 10 10 10 10 10 11 11 10 10 11 11 11 11 11 10 11 11 11 12 11 12 11 10 10 20 22 22 24 18 15 15 14 14 14 13 14 14 15 15 15
9 10 10 10 10 10 11 10 10 11 11 11 11 12 11 10 11 11 11 11 11 11 11 12 12 16 22 21 22 23 22 17 14 13 13 12 13 13 14 14 15 16
10 10 11 10 10 10 10 10 11 11 11 12 12 11 11 11 11 11 11 11 11 13 13 13 13 17 21 22 22 23 24 20 12 12 12 13 14 15 15 14 15 17
10 11 11 10 10 10 10 11 11 11 11 11 11 11 11 11 11 12 11 12 12 13 14 14 14 16 22 23 23 24 23 21 13 13 13 14 15 15 14 16 18 17
10 10 11 11 11 10 10 10 11 11 11 10 10 11 11 10 11 12 12 12 13 14 14 14 12 19 22 23 23 23 24 21 13 13 13 13 14 15 17 18 18 16
10 10 10 11 11 11 11 11 11 11 12 11 11 10 9 10 10 11 12 12 13 14 14 14 14 20 22 23 24 24 26 15 14 14 13 14 15 15 17 17 16 17
10 10 10 11 11 11 11 11 11 12 11 10 11 11 11 11 12 11 11 12 13 13 14 14 14 18 23 23 23 26 21 14 13 12 14 14 15 18 16 14 16 15
9 9 10 10 10 11 11 10 10 10 10 11 12 13 13 12 13 12 12 11 13 14 13 16 16 18 22 22 24 26 23 15 13 14 14 15 16 16 14 14 13 20
8 9 9 10 10 10 10 11 11 11 11 11 10 11 12 12 12 12 13 13 13 15 17 16 15 16 20 22 25 25 22 16 15 13 14 14 15 14 13 12 15 16
8 9 9 9 10 11 10 11 11 10 11 11 11 10 10 11 12 12 14 13 14 14 13 14 14 14 16 23 24 26 26 18 14 12 14 15 13 15 16 15 15 14
Wind_Direction
326 324 321 319 316 316 315 315 314 312 311 312 310 312 312 312 316 316 313 312 311 308 308 308 307 306 307 307 305 302 299 295 293 293 293 290 287 287 283 280 279 276
323 320 317 315 313 315 314 313 312 311 311 312 313 310 310 313 314 313 314 312 310 309 310 308 309 310 310 307 307 303 297 295 295 296 292 289 288 284 281 281 280 278
322 320 318 316 315 313 313 313 311 312 312 313 311 311 313 313 311 315 313 314 312 312 312 312 312 311 309 306 306 301 296 298 296 296 294 291 289 286 285 285 280 278
320 319 317 316 315 314 315 313 314 314 315 314 315 314 312 311 314 314 315 315 315 313 313 314 313 311 311 309 307 301 300 296 294 297 294 290 288 288 287 285 282 280
320 320 319 317 316 315 315 314 317 317 316 315 313 315 314 316 316 317 317 317 315 316 315 315 314 312 310 307 306 301 301 296 295 296 294 292 290 288 287 286 285 285
320 321 321 320 320 321 319 319 319 319 317 317 317 315 315 317 315 315 316 315 315 313 311 311 311 309 308 304 303 298 298 297 296 295 290 288 288 285 287 287 288 288
322 323 322 322 322 323 321 322 322 319 320 319 315 314 318 317 315 314 314 314 311 309 309 310 309 309 308 304 300 299 297 295 293 290 287 288 289 288 287 292 291 289
322 322 322 323 324 325 324 325 323 322 323 321 315 316 317 314 314 314 312 311 309 307 307 308 306 307 307 304 300 300 297 294 292 291 290 289 290 290 290 293 292 290
323 324 326 327 328 326 327 327 325 324 324 319 317 316 316 315 315 312 311 310 307 307 307 306 309 307 306 302 298 296 296 294 292 293 292 292 293 296 296 295 290 288
326 326 328 331 330 328 327 328 327 324 323 321 319 317 318 316 313 312 311 310 308 309 308 308 306 304 302 301 299 298 297 296 296 296 296 296 294 294 292 290 288 286
328 329 330 331 329 327 326 327 327 324 323 320 319 318 317 315 314 314 312 310 310 310 308 306 305 302 301 299 299 299 299 298 296 297 299 295 293 289 287 287 286 285
332 330 330 329 328 327 327 327 326 325 323 319 319 316 315 313 312 314 313 310 308 308 307 305 304 304 301 300 301 301 299 300 301 300 296 292 290 291 290 290 289 289
334 332 327 326 328 326 324 325 325 324 323 320 319 315 314 313 313 312 311 310 308 308 307 307 306 304 303 302 304 306 308 306 300 298 295 296 294 293 291 289 287 288
332 329 328 326 324 323 324 323 323 324 322 319 318 318 315 314 313 313 312 310 311 310 310 309 306 304 305 306 310 310 307 301 300 299 299 296 295 294 293 291 290 288
330 327 325 325 324 325 326 327 325 322 321 319 318 317 315 313 312 312 313 313 313 313 311 310 306 306 307 315 313 308 306 305 302 300 300 299 298 297 294 292 292 289
328 326 325 324 326 326 329 328 326 324 321 320 320 317 316 315 315 316 314 314 313 313 313 311 307 302 306 310 308 309 308 305 304 302 301 300 300 299 299 299 298 298
329 326 325 324 326 325 328 328 325 322 320 321 321 320 318 319 318 319 319 315 315 316 316 311 306 304 311 313 315 314 314 311 308 304 301 303 303 303 305 305 301 295
330 325 323 324 326 328 328 326 323 322 321 321 321 321 321 319 318 319 317 318 318 318 317 318 312 305 315 316 316 317 317 315 311 308 310 309 306 305 302 299 297 296
327 327 324 324 329 329 327 325 325 324 324 324 323 322 319 321 321 320 322 321 319 320 317 311 306 305 318 318 319 319 321 321 318 318 312 305 304 302 297 296 297 294
326 325 324 326 328 328 328 327 326 326 324 322 320 321 321 320 323 324 323 327 326 324 322 313 306 303 318 321 323 323 324 326 320 315 310 305 304 302 297 293 288 287
328 326 325 326 327 327 327 326 327 325 325 325 324 323 322 323 325 328 329 328 326 321 313 309 302 311 321 322 323 325 326 327 320 314 309 306 304 298 291 292 294 292
329 326 325 327 327 326 328 329 328 328 326 326 324 320 321 319 321 327 324 318 311 309 310 308 309 319 324 325 326 326 328 326 321 313 306 307 298 295 298 294 291 296
329 326 326 326 327 326 329 330 329 328 327 332 325 325 325 326 327 325 327 317 308 308 309 312 316 322 323 324 326 328 330 325 318 312 311 300 300 298 293 294 297 290
325 324 323 324 324 326 326 325 324 323 327 334 332 330 330 327 332 325 319 305 308 310 317 320 316 319 321 323 327 329 333 329 321 316 305 303 298 299 297 298 303 311
323 323 322 323 323 323 324 325 326 327 326 327 323 324 326 326 325 319 324 326 325 326 323 318 317 317 320 324 328 331 334 330 323 310 302 298 299 299 312 317 317 316
321 321 323 323 322 322 324 325 323 321 326 326 325 325 319 325 325 324 321 323 328 329 327 321 319 320 321 326 331 331 332 331 324 316 315 314 314 322 321 321 322 318